BEESAT-1

Last updated on Sat Aug 15 2026 00:03:14 GMT+0000 (Coordinated Universal Time)

1 35933U 09051C 26226.29300199 .00000376 00000+0 85182-4 0 9992 2 35933 98.3899 134.6928 0006421 54.2767 305.9030 14.61800191897676
UTC large
Height (km)
Speed (km/s)
/
Latitude / Longitude
Inclination (degrees)
Orbital Period (minutes)
Azimuth
Elevation
Range (km)
Doppler Factor

Next 0 passes for location: London (51.5072 / 0.1276)

No passes found over London.
BEESAT-1